| time (UTC) | temp F | wind direction | speed MPH | gust MPH | rain 1hr in | rain 24hr in | rain mn in | humidity % | barometer mb |
| 20260901153040 | 90 | 0 | 0.0 | 5.0 | 0.00 | 0.00 | 0.00 | 57 | 1017.2 |
| 20260901152516 | 90 | 0 | 0.0 | 6.0 | 0.00 | 0.00 | 0.00 | 59 | 1017.2 |
| 20260901152019 | 89 | 0 | 1.0 | 6.0 | 0.00 | 0.00 | 0.00 | 59 | 1017.2 |
| 20260901151536 | 89 | 190 | 1.0 | 5.0 | 0.00 | 0.00 | 0.00 | 60 | 1017.2 |
| 20260901151020 | 89 | 269 | 0.0 | 6.0 | 0.00 | 0.00 | 0.00 | 60 | 1017.2 |
| 20260901150519 | 88 | 291 | 2.0 | 6.0 | 0.00 | 0.00 | 0.00 | 61 | 1017.3 |
| 20260901150038 | 88 | 0 | 0.0 | 4.0 | 0.00 | 0.00 | 0.00 | 61 | 1017.4 |
| 20260901145519 | 88 | 30 | 0.0 | 4.0 | 0.00 | 0.00 | 0.00 | 62 | 1017.4 |
| 20260901145019 | 87 | 0 | 0.0 | 5.0 | 0.00 | 0.00 | 0.00 | 63 | 1017.5 |
| 20260901144538 | 87 | 204 | 1.0 | 5.0 | 0.00 | 0.00 | 0.00 | 64 | 1017.4 |
| 20260901144018 | 86 | 0 | 0.0 | 5.0 | 0.00 | 0.00 | 0.00 | 65 | 1017.5 |
| 20260901143517 | 86 | 206 | 1.0 | 5.0 | 0.00 | 0.00 | 0.00 | 66 | 1017.5 |
| 20260901143043 | 86 | 0 | 0.0 | 4.0 | 0.00 | 0.00 | 0.00 | 66 | 1017.5 |
| 20260901142518 | 85 | 0 | 1.0 | 5.0 | 0.00 | 0.00 | 0.00 | 66 | 1017.5 |
| 20260901142020 | 85 | 0 | 0.0 | 5.0 | 0.00 | 0.00 | 0.00 | 67 | 1017.4 |
| 20260901141545 | 85 | 0 | 1.0 | 5.0 | 0.00 | 0.00 | 0.00 | 67 | 1017.5 |
| 20260901141019 | 85 | 0 | 0.0 | 6.0 | 0.00 | 0.00 | 0.00 | 68 | 1017.5 |
| 20260901140517 | 84 | 200 | 2.0 | 6.0 | 0.00 | 0.00 | 0.00 | 68 | 1017.4 |
| 20260901140038 | 84 | 0 | 0.0 | 3.0 | 0.00 | 0.00 | 0.00 | 69 | 1017.5 |
| 20260901135519 | 84 | 0 | 0.0 | 3.0 | 0.00 | 0.00 | 0.00 | 69 | 1017.5 |
| 20260901135018 | 84 | 0 | 0.0 | 4.0 | 0.00 | 0.00 | 0.00 | 70 | 1017.5 |
| 20260901134536 | 83 | 0 | 0.0 | 4.0 | 0.00 | 0.00 | 0.00 | 70 | 1017.5 |
| 20260901134019 | 83 | 177 | 0.0 | 4.0 | 0.00 | 0.00 | 0.00 | 70 | 1017.5 |
| 20260901133519 | 83 | 175 | 0.0 | 7.0 | 0.00 | 0.00 | 0.00 | 69 | 1017.6 |
| 20260901133042 | 83 | 202 | 1.0 | 7.0 | 0.00 | 0.00 | 0.00 | 69 | 1017.5 |
| 20260901132538 | 83 | 177 | 1.0 | 4.0 | 0.00 | 0.00 | 0.00 | 69 | 1017.5 |
| 20260901132020 | 83 | 195 | 0.0 | 5.0 | 0.00 | 0.00 | 0.00 | 69 | 1017.5 |
| 20260901131537 | 83 | 194 | 0.0 | 5.0 | 0.00 | 0.00 | 0.00 | 69 | 1017.5 |
| 20260901131019 | 83 | 197 | 1.0 | 6.0 | 0.00 | 0.00 | 0.00 | 69 | 1017.3 |
| 20260901130520 | 82 | 0 | 1.0 | 6.0 | 0.00 | 0.00 | 0.00 | 69 | 1017.4 |
| 20260901130037 | 82 | 0 | 1.0 | 7.0 | 0.00 | 0.00 | 0.00 | 69 | 1017.3 |
| 20260901125517 | 82 | 186 | 2.0 | 7.0 | 0.00 | 0.00 | 0.00 | 69 | 1017.1 |
| 20260901125017 | 82 | 0 | 1.0 | 7.0 | 0.00 | 0.00 | 0.00 | 69 | 1017.1 |
| 20260901124550 | 82 | 0 | 0.0 | 4.0 | 0.00 | 0.00 | 0.00 | 69 | 1017.1 |
| 20260901124018 | 82 | 184 | 0.0 | 5.0 | 0.00 | 0.00 | 0.00 | 70 | 1016.9 |
| 20260901123521 | 81 | 0 | 1.0 | 5.0 | 0.00 | 0.00 | 0.00 | 70 | 1016.9 |
| 20260901123038 | 81 | 0 | 0.0 | 2.0 | 0.00 | 0.00 | 0.00 | 70 | 1016.7 |
| 20260901122518 | 81 | 195 | 0.0 | 2.0 | 0.00 | 0.00 | 0.00 | 70 | 1016.7 |
| 20260901122019 | 81 | 0 | 0.0 | 1.0 | 0.00 | 0.00 | 0.00 | 70 | 1016.6 |
| 20260901121545 | 81 | 0 | 0.0 | 2.0 | 0.00 | 0.00 | 0.00 | 70 | 1016.4 |
| 20260901121018 | 81 | 0 | 0.0 | 3.0 | 0.00 | 0.00 | 0.00 | 70 | 1016.4 |
| 20260901120524 | 81 | 0 | 0.0 | 3.0 | 0.00 | 0.00 | 0.00 | 70 | 1016.3 |
| 20260901120036 | 81 | 0 | 0.0 | 3.0 | 0.00 | 0.00 | 0.00 | 70 | 1016.3 |
| 20260901115523 | 81 | 0 | 0.0 | 3.0 | 0.00 | 0.00 | 0.00 | 70 | 1016.3 |
| 20260901115018 | 81 | 0 | 0.0 | 0.0 | 0.00 | 0.00 | 0.00 | 70 | 1016.3 |
| 20260901114535 | 81 | 0 | 0.0 | 0.0 | 0.00 | 0.00 | 0.00 | 69 | 1016.4 |
| 20260901114019 | 81 | 0 | 0.0 | 3.0 | 0.00 | 0.00 | 0.00 | 69 | 1016.4 |
| 20260901113520 | 81 | 0 | 0.0 | 3.0 | 0.00 | 0.00 | 0.00 | 68 | 1016.3 |
| 20260901113038 | 81 | 0 | 0.0 | 3.0 | 0.00 | 0.00 | 0.00 | 68 | 1016.2 |
| 20260901112518 | 82 | 0 | 0.0 | 3.0 | 0.00 | 0.00 | 0.00 | 68 | 1016.2 |
| 20260901112018 | 82 | 185 | 0.0 | 3.0 | 0.00 | 0.00 | 0.00 | 68 | 1016.2 |
| 20260901111542 | 82 | 0 | 0.0 | 3.0 | 0.00 | 0.00 | 0.00 | 68 | 1016.1 |
| 20260901111020 | 82 | 0 | 0.0 | 2.0 | 0.00 | 0.00 | 0.00 | 67 | 1016.0 |
| 20260901110518 | 82 | 0 | 0.0 | 2.0 | 0.00 | 0.00 | 0.00 | 66 | 1015.9 |
| 20260901110045 | 82 | 0 | 0.0 | 4.0 | 0.00 | 0.00 | 0.00 | 66 | 1015.9 |
| 20260901105519 | 82 | 0 | 0.0 | 4.0 | 0.00 | 0.00 | 0.00 | 66 | 1016.0 |
| 20260901105020 | 82 | 0 | 0.0 | 4.0 | 0.00 | 0.00 | 0.00 | 66 | 1016.0 |
| 20260901104535 | 82 | 0 | 0.0 | 4.0 | 0.00 | 0.00 | 0.00 | 66 | 1016.0 |
| 20260901104018 | 82 | 189 | 0.0 | 4.0 | 0.00 | 0.00 | 0.00 | 65 | 1016.0 |
| 20260901103517 | 82 | 0 | 0.0 | 2.0 | 0.00 | 0.00 | 0.00 | 65 | 1016.0 |
| 20260901103034 | 83 | 0 | 0.0 | 4.0 | 0.00 | 0.00 | 0.00 | 65 | 1015.9 |
| 20260901102521 | 83 | 0 | 0.0 | 4.0 | 0.00 | 0.00 | 0.00 | 65 | 1016.0 |
| 20260901102016 | 83 | 0 | 0.0 | 3.0 | 0.00 | 0.00 | 0.00 | 64 | 1016.0 |
| 20260901101536 | 83 | 0 | 0.0 | 2.0 | 0.00 | 0.00 | 0.00 | 64 | 1016.1 |
| 20260901101023 | 83 | 0 | 0.0 | 4.0 | 0.00 | 0.00 | 0.00 | 64 | 1016.1 |
| 20260901100520 | 83 | 0 | 0.0 | 4.0 | 0.00 | 0.00 | 0.00 | 64 | 1016.1 |
| 20260901100037 | 83 | 0 | 0.0 | 3.0 | 0.00 | 0.00 | 0.00 | 64 | 1016.1 |
| 20260901095519 | 83 | 0 | 0.0 | 3.0 | 0.00 | 0.00 | 0.00 | 64 | 1016.1 |
| 20260901095017 | 83 | 0 | 0.0 | 1.0 | 0.00 | 0.00 | 0.00 | 63 | 1016.1 |
| 20260901094535 | 84 | 0 | 0.0 | 4.0 | 0.00 | 0.00 | 0.00 | 63 | 1016.2 |
| 20260901094021 | 84 | 0 | 0.0 | 4.0 | 0.00 | 0.00 | 0.00 | 63 | 1016.1 |
| 20260901093519 | 84 | 0 | 0.0 | 3.0 | 0.00 | 0.00 | 0.00 | 63 | 1016.1 |
| 20260901093054 | 84 | 201 | 0.0 | 3.0 | 0.00 | 0.00 | 0.00 | 62 | 1016.1 |
| 20260901092518 | 84 | 0 | 0.0 | 4.0 | 0.00 | 0.00 | 0.00 | 62 | 1016.1 |
| 20260901092018 | 84 | 0 | 0.0 | 4.0 | 0.00 | 0.00 | 0.00 | 62 | 1016.1 |
| 20260901091554 | 84 | 0 | 0.0 | 2.0 | 0.00 | 0.00 | 0.00 | 62 | 1016.0 |
| 20260901091021 | 84 | 0 | 0.0 | 3.0 | 0.00 | 0.00 | 0.00 | 62 | 1016.1 |
| 20260901090519 | 84 | 0 | 0.0 | 3.0 | 0.00 | 0.00 | 0.00 | 62 | 1016.1 |
| 20260901090036 | 85 | 0 | 0.0 | 3.0 | 0.00 | 0.00 | 0.00 | 61 | 1016.0 |
| 20260901085520 | 85 | 0 | 0.0 | 4.0 | 0.00 | 0.00 | 0.00 | 60 | 1015.9 |
| 20260901085020 | 85 | 0 | 1.0 | 4.0 | 0.00 | 0.00 | 0.00 | 60 | 1015.8 |
| 20260901084535 | 85 | 212 | 1.0 | 5.0 | 0.00 | 0.00 | 0.00 | 60 | 1015.8 |
| 20260901084020 | 85 | 0 | 0.0 | 5.0 | 0.00 | 0.00 | 0.00 | 60 | 1015.7 |
| 20260901083518 | 85 | 0 | 0.0 | 4.0 | 0.00 | 0.00 | 0.00 | 59 | 1015.8 |
| 20260901083036 | 85 | 0 | 1.0 | 6.0 | 0.00 | 0.00 | 0.00 | 59 | 1015.8 |
| 20260901082518 | 85 | 201 | 1.0 | 7.0 | 0.00 | 0.00 | 0.00 | 59 | 1015.6 |
| 20260901082018 | 86 | 0 | 0.0 | 7.0 | 0.00 | 0.00 | 0.00 | 59 | 1015.6 |
| 20260901081536 | 86 | 0 | 0.0 | 4.0 | 0.00 | 0.00 | 0.00 | 58 | 1015.6 |
| 20260901081020 | 86 | 0 | 1.0 | 6.0 | 0.00 | 0.00 | 0.00 | 58 | 1015.7 |
| 20260901080520 | 86 | 0 | 1.0 | 7.0 | 0.00 | 0.00 | 0.00 | 58 | 1015.6 |
| 20260901080042 | 86 | 218 | 1.0 | 7.0 | 0.00 | 0.00 | 0.00 | 58 | 1015.8 |
| 20260901075520 | 86 | 203 | 0.0 | 5.0 | 0.00 | 0.00 | 0.00 | 57 | 1015.8 |
| 20260901075022 | 86 | 0 | 0.0 | 5.0 | 0.00 | 0.00 | 0.00 | 57 | 1015.8 |
| 20260901074535 | 86 | 193 | 1.0 | 5.0 | 0.00 | 0.00 | 0.00 | 57 | 1015.7 |
| 20260901074019 | 86 | 0 | 0.0 | 4.0 | 0.00 | 0.00 | 0.00 | 57 | 1015.7 |
| 20260901073519 | 86 | 200 | 0.0 | 4.0 | 0.00 | 0.00 | 0.00 | 57 | 1015.7 |
| 20260901073035 | 85 | 0 | 0.0 | 1.0 | 0.00 | 0.00 | 0.00 | 57 | 1015.7 |
| 20260901072516 | 85 | 0 | 0.0 | 1.0 | 0.00 | 0.00 | 0.00 | 57 | 1015.8 |
| 20260901072021 | 86 | 0 | 0.0 | 1.0 | 0.00 | 0.00 | 0.00 | 56 | 1015.8 |
| 20260901071536 | 86 | 0 | 0.0 | 2.0 | 0.00 | 0.00 | 0.00 | 56 | 1015.8 |
| 20260901071023 | 87 | 0 | 0.0 | 2.0 | 0.00 | 0.00 | 0.00 | 55 | 1015.8 |
| 20260901070520 | 87 | 0 | 0.0 | 6.0 | 0.00 | 0.00 | 0.00 | 55 | 1015.8 |
| 20260901070038 | 87 | 0 | 0.0 | 6.0 | 0.00 | 0.00 | 0.00 | 55 | 1015.8 |
| 20260901065519 | 86 | 0 | 0.0 | 1.0 | 0.00 | 0.00 | 0.00 | 55 | 1015.8 |
| 20260901065020 | 86 | 0 | 0.0 | 1.0 | 0.00 | 0.00 | 0.00 | 55 | 1015.8 |
| 20260901064540 | 87 | 0 | 0.0 | 3.0 | 0.00 | 0.00 | 0.00 | 55 | 1015.8 |
| 20260901064018 | 87 | 0 | 0.0 | 3.0 | 0.00 | 0.00 | 0.00 | 54 | 1015.8 |
| 20260901063519 | 87 | 0 | 0.0 | 1.0 | 0.00 | 0.00 | 0.00 | 54 | 1015.7 |
| 20260901063039 | 87 | 0 | 0.0 | 2.0 | 0.00 | 0.00 | 0.00 | 53 | 1015.7 |
| 20260901062520 | 87 | 0 | 0.0 | 2.0 | 0.00 | 0.00 | 0.00 | 53 | 1015.7 |
| 20260901062020 | 87 | 0 | 0.0 | 3.0 | 0.00 | 0.00 | 0.00 | 53 | 1015.7 |
| 20260901061538 | 87 | 0 | 0.0 | 3.0 | 0.00 | 0.00 | 0.00 | 53 | 1015.6 |
| 20260901061020 | 87 | 0 | 0.0 | 4.0 | 0.00 | 0.00 | 0.00 | 52 | 1015.6 |
| 20260901060519 | 88 | 0 | 0.0 | 4.0 | 0.00 | 0.00 | 0.00 | 52 | 1015.5 |
| 20260901060035 | 87 | 0 | 0.0 | 4.0 | 0.00 | 0.00 | 0.00 | 52 | 1015.5 |
| 20260901055517 | 88 | 0 | 0.0 | 3.0 | 0.00 | 0.00 | 0.00 | 51 | 1015.5 |
| 20260901055017 | 88 | 0 | 0.0 | 5.0 | 0.00 | 0.00 | 0.00 | 51 | 1015.4 |
| 20260901054535 | 88 | 110 | 1.0 | 6.0 | 0.00 | 0.00 | 0.00 | 51 | 1015.3 |
| 20260901054019 | 88 | 0 | 0.0 | 7.0 | 0.00 | 0.00 | 0.00 | 51 | 1015.3 |
| 20260901053517 | 88 | 174 | 0.0 | 7.0 | 0.00 | 0.00 | 0.00 | 51 | 1015.3 |
| 20260901053039 | 88 | 123 | 1.0 | 8.0 | 0.00 | 0.00 | 0.00 | 50 | 1015.2 |
| 20260901052517 | 88 | 0 | 0.0 | 8.0 | 0.00 | 0.00 | 0.00 | 51 | 1015.1 |
| 20260901052019 | 88 | 0 | 0.0 | 4.0 | 0.00 | 0.00 | 0.00 | 50 | 1015.1 |
| 20260901051537 | 88 | 0 | 0.0 | 4.0 | 0.00 | 0.00 | 0.00 | 50 | 1015.2 |
| 20260901051020 | 87 | 0 | 0.0 | 4.0 | 0.00 | 0.00 | 0.00 | 50 | 1015.1 |
| 20260901050518 | 87 | 0 | 0.0 | 2.0 | 0.00 | 0.00 | 0.00 | 50 | 1015.1 |
| 20260901050037 | 88 | 0 | 0.0 | 2.0 | 0.00 | 0.00 | 0.00 | 49 | 1015.1 |
| 20260901045519 | 88 | 0 | 0.0 | 1.0 | 0.00 | 0.00 | 0.00 | 48 | 1015.0 |
| 20260901045020 | 88 | 0 | 0.0 | 2.0 | 0.00 | 0.00 | 0.00 | 48 | 1015.0 |
| 20260901044542 | 88 | 0 | 0.0 | 2.0 | 0.00 | 0.00 | 0.00 | 49 | 1015.0 |
| 20260901044018 | 87 | 0 | 0.0 | 2.0 | 0.00 | 0.00 | 0.00 | 49 | 1015.1 |
| 20260901043517 | 87 | 0 | 0.0 | 0.0 | 0.00 | 0.00 | 0.00 | 49 | 1015.0 |
| 20260901043042 | 87 | 0 | 0.0 | 0.0 | 0.00 | 0.00 | 0.00 | 48 | 1014.8 |
| 20260901042517 | 88 | 0 | 0.0 | 0.0 | 0.00 | 0.00 | 0.00 | 48 | 1014.8 |
| 20260901042022 | 88 | 0 | 0.0 | 1.0 | 0.00 | 0.00 | 0.00 | 47 | 1014.9 |
| 20260901041536 | 88 | 0 | 0.0 | 1.0 | 0.00 | 0.00 | 0.00 | 46 | 1014.9 |
| 20260901041018 | 89 | 0 | 0.0 | 1.0 | 0.00 | 0.00 | 0.00 | 46 | 1015.0 |
| 20260901040517 | 89 | 0 | 0.0 | 2.0 | 0.00 | 0.00 | 0.00 | 46 | 1014.8 |
| 20260901040044 | 89 | 184 | 0.0 | 2.0 | 0.00 | 0.00 | 0.00 | 45 | 1014.9 |
| 20260901035522 | 89 | 0 | 0.0 | 2.0 | 0.00 | 0.00 | 0.00 | 46 | 1014.8 |
| 20260901035019 | 89 | 184 | 0.0 | 1.0 | 0.00 | 0.00 | 0.00 | 46 | 1014.8 |
| 20260901034549 | 89 | 0 | 0.0 | 2.0 | 0.00 | 0.00 | 0.00 | 45 | 1014.8 |
| 20260901034018 | 89 | 0 | 0.0 | 2.0 | 0.00 | 0.00 | 0.00 | 46 | 1014.9 |
| 20260901033520 | 89 | 0 | 0.0 | 2.0 | 0.00 | 0.00 | 0.00 | 45 | 1014.9 |
| 20260901033055 | 89 | 184 | 0.0 | 1.0 | 0.00 | 0.00 | 0.00 | 45 | 1014.7 |
| 20260901032517 | 90 | 0 | 0.0 | 1.0 | 0.00 | 0.00 | 0.00 | 44 | 1014.8 |
| 20260901032017 | 90 | 0 | 0.0 | 2.0 | 0.00 | 0.00 | 0.00 | 45 | 1014.9 |
| 20260901031536 | 90 | 0 | 0.0 | 2.0 | 0.00 | 0.00 | 0.00 | 44 | 1014.8 |
| 20260901031019 | 90 | 0 | 0.0 | 1.0 | 0.00 | 0.00 | 0.00 | 46 | 1014.7 |
| 20260901030523 | 90 | 0 | 0.0 | 1.0 | 0.00 | 0.00 | 0.00 | 44 | 1014.7 |
| 20260901030037 | 90 | 0 | 0.0 | 1.0 | 0.00 | 0.00 | 0.00 | 44 | 1014.6 |
| 20260901025517 | 91 | 0 | 0.0 | 2.0 | 0.00 | 0.00 | 0.00 | 42 | 1014.5 |
| 20260901025017 | 91 | 0 | 0.0 | 2.0 | 0.00 | 0.00 | 0.00 | 42 | 1014.6 |
| 20260901024546 | 91 | 0 | 0.0 | 3.0 | 0.00 | 0.00 | 0.00 | 42 | 1014.6 |
| 20260901024018 | 91 | 0 | 0.0 | 3.0 | 0.00 | 0.00 | 0.00 | 42 | 1014.4 |
| 20260901023521 | 91 | 179 | 0.0 | 4.0 | 0.00 | 0.00 | 0.00 | 41 | 1014.3 |
| 20260901023038 | 92 | 0 | 0.0 | 4.0 | 0.00 | 0.00 | 0.00 | 41 | 1014.3 |
| 20260901022520 | 92 | 205 | 0.0 | 3.0 | 0.00 | 0.00 | 0.00 | 41 | 1014.2 |
| 20260901022021 | 92 | 0 | 0.0 | 3.0 | 0.00 | 0.00 | 0.00 | 40 | 1014.2 |
| 20260901021537 | 92 | 194 | 0.0 | 4.0 | 0.00 | 0.00 | 0.00 | 40 | 1014.1 |
| 20260901021017 | 92 | 192 | 0.0 | 4.0 | 0.00 | 0.00 | 0.00 | 41 | 1013.9 |
| 20260901020520 | 92 | 0 | 0.0 | 3.0 | 0.00 | 0.00 | 0.00 | 40 | 1013.9 |
| 20260901020038 | 92 | 0 | 0.0 | 3.0 | 0.00 | 0.00 | 0.00 | 39 | 1013.9 |
| 20260901015519 | 93 | 184 | 0.0 | 5.0 | 0.00 | 0.00 | 0.00 | 41 | 1013.9 |
| 20260901015023 | 93 | 0 | 0.0 | 6.0 | 0.00 | 0.00 | 0.00 | 39 | 1013.9 |
| 20260901014538 | 93 | 0 | 1.0 | 6.0 | 0.00 | 0.00 | 0.00 | 40 | 1013.9 |
| 20260901014019 | 93 | 0 | 0.0 | 7.0 | 0.00 | 0.00 | 0.00 | 39 | 1013.8 |
| 20260901013520 | 93 | 0 | 1.0 | 7.0 | 0.00 | 0.00 | 0.00 | 39 | 1013.9 |
| 20260901013035 | 93 | 243 | 1.0 | 6.0 | 0.00 | 0.00 | 0.00 | 40 | 1013.8 |
| 20260901012518 | 93 | 191 | 0.0 | 4.0 | 0.00 | 0.00 | 0.00 | 51 | 1013.8 |
| 20260901012021 | 94 | 0 | 0.0 | 5.0 | 0.00 | 0.00 | 0.00 | 45 | 1013.6 |
| 20260901011543 | 94 | 0 | 0.0 | 5.0 | 0.00 | 0.00 | 0.00 | 35 | 1013.6 |
| 20260901011019 | 95 | 0 | 0.0 | 5.0 | 0.00 | 0.00 | 0.00 | 34 | 1013.7 |
| 20260901010516 | 95 | 150 | 0.0 | 5.0 | 0.00 | 0.00 | 0.00 | 34 | 1013.6 |
| 20260901010044 | 95 | 0 | 0.0 | 5.0 | 0.00 | 0.00 | 0.00 | 33 | 1013.7 |
| 20260901005519 | 96 | 0 | 0.0 | 8.0 | 0.00 | 0.00 | 0.00 | 33 | 1013.7 |
| 20260901005024 | 96 | 0 | 1.0 | 8.0 | 0.00 | 0.00 | 0.00 | 33 | 1013.8 |
| 20260901004543 | 96 | 162 | 0.0 | 8.0 | 0.00 | 0.00 | 0.00 | 34 | 1013.7 |
| 20260901004020 | 96 | 188 | 3.0 | 8.0 | 0.00 | 0.00 | 0.00 | 33 | 1013.7 |
| 20260901003521 | 96 | 0 | 0.0 | 5.0 | 0.00 | 0.00 | 0.00 | 34 | 1013.6 |
| 20260901003044 | 97 | 0 | 2.0 | 5.0 | 0.00 | 0.00 | 0.00 | 34 | 1013.6 |
| 20260901002525 | 97 | 121 | 0.0 | 6.0 | 0.00 | 0.00 | 0.00 | 33 | 1013.6 |
| 20260901002020 | 97 | 156 | 1.0 | 6.0 | 0.00 | 0.00 | 0.00 | 33 | 1013.7 |
| 20260901001539 | 97 | 0 | 0.0 | 5.0 | 0.00 | 0.00 | 0.00 | 32 | 1013.6 |
| 20260901001019 | 97 | 177 | 0.0 | 5.0 | 0.00 | 0.00 | 0.00 | 32 | 1013.6 |
| 20260901000522 | 97 | 0 | 0.0 | 5.0 | 0.00 | 0.00 | 0.00 | 32 | 1013.6 |
| 20260901000038 | 97 | 194 | 1.0 | 9.0 | 0.00 | 0.00 | 0.00 | 31 | 1013.5 |
| 20260831235518 | 98 | 201 | 0.0 | 9.0 | 0.00 | 0.00 | 0.00 | 31 | 1013.5 |
| 20260831235016 | 98 | 190 | 1.0 | 8.0 | 0.00 | 0.00 | 0.00 | 31 | 1013.6 |
| 20260831234539 | 98 | 241 | 2.0 | 8.0 | 0.00 | 0.00 | 0.00 | 31 | 1013.7 |
| 20260831234018 | 98 | 200 | 2.0 | 9.0 | 0.00 | 0.00 | 0.00 | 31 | 1013.8 |
| 20260831233524 | 98 | 143 | 2.0 | 9.0 | 0.00 | 0.00 | 0.00 | 30 | 1013.7 |
| 20260831233041 | 98 | 104 | 1.0 | 6.0 | 0.00 | 0.00 | 0.00 | 31 | 1013.8 |
| 20260831232520 | 99 | 0 | 1.0 | 6.0 | 0.00 | 0.00 | 0.00 | 30 | 1013.8 |
| 20260831232019 | 99 | 0 | 0.0 | 6.0 | 0.00 | 0.00 | 0.00 | 31 | 1013.8 |
| 20260831231538 | 99 | 189 | 0.0 | 8.0 | 0.00 | 0.00 | 0.00 | 30 | 1013.7 |
| 20260831231024 | 99 | 198 | 1.0 | 8.0 | 0.00 | 0.00 | 0.00 | 30 | 1013.7 |
| 20260831230519 | 99 | 194 | 2.0 | 5.0 | 0.00 | 0.00 | 0.00 | 31 | 1013.7 |
| 20260831230036 | 100 | 0 | 0.0 | 4.0 | 0.00 | 0.00 | 0.00 | 30 | 1013.8 |
| 20260831225526 | 100 | 0 | 0.0 | 4.0 | 0.00 | 0.00 | 0.00 | 31 | 1013.8 |
| 20260831225021 | 99 | 61 | 0.0 | 7.0 | 0.00 | 0.00 | 0.00 | 31 | 1013.9 |
| 20260831224537 | 99 | 174 | 2.0 | 9.0 | 0.00 | 0.00 | 0.00 | 31 | 1013.9 |
| 20260831224020 | 99 | 0 | 2.0 | 13.0 | 0.00 | 0.00 | 0.00 | 31 | 1013.9 |
| 20260831223520 | 99 | 209 | 3.0 | 13.0 | 0.00 | 0.00 | 0.00 | 31 | 1013.9 |
| 20260831223040 | 99 | 198 | 3.0 | 12.0 | 0.00 | 0.00 | 0.00 | 32 | 1014.0 |
| 20260831222521 | 99 | 211 | 3.0 | 12.0 | 0.00 | 0.00 | 0.00 | 32 | 1014.1 |
| 20260831222022 | 100 | 202 | 2.0 | 6.0 | 0.00 | 0.00 | 0.00 | 31 | 1014.1 |
| 20260831221542 | 101 | 191 | 2.0 | 8.0 | 0.00 | 0.00 | 0.00 | 30 | 1014.1 |
| 20260831221017 | 101 | 94 | 2.0 | 8.0 | 0.00 | 0.00 | 0.00 | 30 | 1014.2 |
| 20260831220517 | 101 | 229 | 0.0 | 4.0 | 0.00 | 0.00 | 0.00 | 29 | 1014.2 |
| 20260831220038 | 101 | 0 | 0.0 | 4.0 | 0.00 | 0.00 | 0.00 | 31 | 1014.3 |
| 20260831215519 | 100 | 196 | 1.0 | 6.0 | 0.00 | 0.00 | 0.00 | 31 | 1014.4 |
| 20260831215020 | 101 | 0 | 0.0 | 10.0 | 0.00 | 0.00 | 0.00 | 31 | 1014.5 |
| 20260831214543 | 99 | 160 | 3.0 | 10.0 | 0.00 | 0.00 | 0.00 | 32 | 1014.5 |
| 20260831214020 | 98 | 0 | 3.0 | 10.0 | 0.00 | 0.00 | 0.00 | 32 | 1014.6 |
| 20260831213520 | 99 | 202 | 0.0 | 9.0 | 0.00 | 0.00 | 0.00 | 32 | 1014.6 |
| 20260831213043 | 99 | 231 | 3.0 | 11.0 | 0.00 | 0.00 | 0.00 | 32 | 1014.6 |
| 20260831212520 | 101 | 191 | 2.0 | 11.0 | 0.00 | 0.00 | 0.00 | 30 | 1014.6 |
| 20260831212020 | 101 | 108 | 2.0 | 8.0 | 0.00 | 0.00 | 0.00 | 30 | 1014.7 |
| 20260831211537 | 101 | 0 | 2.0 | 8.0 | 0.00 | 0.00 | 0.00 | 29 | 1014.6 |
| 20260831211020 | 101 | 252 | 0.0 | 11.0 | 0.00 | 0.00 | 0.00 | 29 | 1014.8 |
| 20260831210520 | 102 | 223 | 1.0 | 11.0 | 0.00 | 0.00 | 0.00 | 29 | 1014.8 |
| 20260831210039 | 103 | 210 | 2.0 | 8.0 | 0.00 | 0.00 | 0.00 | 28 | 1014.8 |
| 20260831205520 | 103 | 85 | 1.0 | 7.0 | 0.00 | 0.00 | 0.00 | 30 | 1015.0 |
| 20260831205021 | 102 | 177 | 2.0 | 8.0 | 0.00 | 0.00 | 0.00 | 31 | 1015.1 |
| 20260831204553 | 102 | 231 | 3.0 | 8.0 | 0.00 | 0.00 | 0.00 | 30 | 1015.0 |
| 20260831204020 | 102 | 0 | 1.0 | 6.0 | 0.00 | 0.00 | 0.00 | 30 | 1015.3 |
| 20260831203517 | 102 | 112 | 1.0 | 6.0 | 0.00 | 0.00 | 0.00 | 31 | 1015.3 |
| 20260831203055 | 101 | 150 | 2.0 | 6.0 | 0.00 | 0.00 | 0.00 | 32 | 1015.3 |
| 20260831202519 | 103 | 116 | 1.0 | 6.0 | 0.00 | 0.00 | 0.00 | 31 | 1015.4 |
| 20260831202018 | 103 | 102 | 2.0 | 6.0 | 0.00 | 0.00 | 0.00 | 32 | 1015.5 |
| 20260831201539 | 102 | 135 | 0.0 | 12.0 | 0.00 | 0.00 | 0.00 | 33 | 1015.4 |
| 20260831201022 | 101 | 192 | 5.0 | 12.0 | 0.00 | 0.00 | 0.00 | 31 | 1015.4 |
| 20260831200521 | 100 | 0 | 1.0 | 5.0 | 0.00 | 0.00 | 0.00 | 33 | 1015.4 |
| 20260831200041 | 101 | 112 | 0.0 | 7.0 | 0.00 | 0.00 | 0.00 | 33 | 1015.5 |
| 20260831195520 | 102 | 96 | 2.0 | 8.0 | 0.00 | 0.00 | 0.00 | 32 | 1015.7 |
| 20260831195024 | 101 | 140 | 1.0 | 9.0 | 0.00 | 0.00 | 0.00 | 30 | 1015.6 |
| 20260831194542 | 101 | 191 | 2.0 | 9.0 | 0.00 | 0.00 | 0.00 | 29 | 1015.8 |
| 20260831194019 | 101 | 195 | 2.0 | 9.0 | 0.00 | 0.00 | 0.00 | 31 | 1015.9 |
| 20260831193519 | 101 | 223 | 3.0 | 8.0 | 0.00 | 0.00 | 0.00 | 31 | 1016.0 |
| 20260831193039 | 101 | 0 | 1.0 | 5.0 | 0.00 | 0.00 | 0.00 | 32 | 1016.0 |
| 20260831192519 | 99 | 78 | 1.0 | 7.0 | 0.00 | 0.00 | 0.00 | 34 | 1016.1 |
| 20260831192019 | 99 | 141 | 3.0 | 12.0 | 0.00 | 0.00 | 0.00 | 33 | 1016.2 |
| 20260831191538 | 100 | 0 | 3.0 | 12.0 | 0.00 | 0.00 | 0.00 | 33 | 1016.0 |
| 20260831191022 | 101 | 222 | 4.0 | 9.0 | 0.00 | 0.00 | 0.00 | 33 | 1016.0 |
| 20260831190520 | 101 | 158 | 2.0 | 9.0 | 0.00 | 0.00 | 0.00 | 34 | 1016.0 |
| 20260831190054 | 99 | 112 | 4.0 | 9.0 | 0.00 | 0.00 | 0.00 | 35 | 1016.0 |
| 20260831185523 | 98 | 194 | 0.0 | 8.0 | 0.00 | 0.00 | 0.00 | 35 | 1016.0 |
| 20260831185019 | 98 | 0 | 0.0 | 12.0 | 0.00 | 0.00 | 0.00 | 34 | 1016.1 |
| 20260831184539 | 99 | 205 | 4.0 | 14.0 | 0.00 | 0.00 | 0.00 | 33 | 1016.2 |
| 20260831184019 | 98 | 183 | 4.0 | 14.0 | 0.00 | 0.00 | 0.00 | 36 | 1016.1 |
| 20260831183521 | 98 | 0 | 2.0 | 9.0 | 0.00 | 0.00 | 0.00 | 35 | 1016.3 |
| 20260831183039 | 99 | 204 | 4.0 | 9.0 | 0.00 | 0.00 | 0.00 | 35 | 1016.3 |
| 20260831182521 | 99 | 0 | 0.0 | 8.0 | 0.00 | 0.00 | 0.00 | 36 | 1016.3 |
| 20260831182018 | 98 | 207 | 3.0 | 8.0 | 0.00 | 0.00 | 0.00 | 36 | 1016.5 |
| 20260831181549 | 98 | 248 | 2.0 | 14.0 | 0.00 | 0.00 | 0.00 | 37 | 1016.6 |
| 20260831181020 | 97 | 161 | 1.0 | 14.0 | 0.00 | 0.00 | 0.00 | 38 | 1016.6 |
| 20260831180518 | 97 | 244 | 2.0 | 9.0 | 0.00 | 0.00 | 0.00 | 38 | 1016.8 |
| 20260831180037 | 97 | 181 | 4.0 | 9.0 | 0.00 | 0.00 | 0.00 | 39 | 1016.8 |
| 20260831175517 | 98 | 235 | 2.0 | 11.0 | 0.00 | 0.00 | 0.00 | 39 | 1016.8 |
| 20260831175019 | 97 | 94 | 1.0 | 11.0 | 0.00 | 0.00 | 0.00 | 40 | 1016.9 |
| 20260831174543 | 97 | 197 | 0.0 | 7.0 | 0.00 | 0.00 | 0.00 | 41 | 1017.2 |
| 20260831174022 | 96 | 170 | 4.0 | 7.0 | 0.00 | 0.00 | 0.00 | 41 | 1017.3 |
| 20260831173520 | 96 | 156 | 1.0 | 8.0 | 0.00 | 0.00 | 0.00 | 42 | 1017.4 |
| 20260831173036 | 95 | 0 | 3.0 | 8.0 | 0.00 | 0.00 | 0.00 | 42 | 1017.4 |
| 20260831172519 | 95 | 218 | 3.0 | 8.0 | 0.00 | 0.00 | 0.00 | 43 | 1017.5 |
| 20260831172018 | 96 | 0 | 3.0 | 8.0 | 0.00 | 0.00 | 0.00 | 42 | 1017.4 |
| 20260831171536 | 95 | 221 | 2.0 | 7.0 | 0.00 | 0.00 | 0.00 | 44 | 1017.4 |
| 20260831171022 | 95 | 0 | 1.0 | 8.0 | 0.00 | 0.00 | 0.00 | 45 | 1017.5 |
| 20260831170519 | 95 | 0 | 2.0 | 8.0 | 0.00 | 0.00 | 0.00 | 44 | 1017.5 |
| 20260831170039 | 94 | 149 | 1.0 | 8.0 | 0.00 | 0.00 | 0.00 | 45 | 1017.5 |
| 20260831165524 | 94 | 226 | 3.0 | 8.0 | 0.00 | 0.00 | 0.00 | 46 | 1017.5 |
| 20260831165020 | 95 | 0 | 2.0 | 8.0 | 0.00 | 0.00 | 0.00 | 45 | 1017.4 |
| 20260831164538 | 95 | 210 | 1.0 | 8.0 | 0.00 | 0.00 | 0.00 | 46 | 1017.3 |
| 20260831164021 | 94 | 123 | 2.0 | 8.0 | 0.00 | 0.00 | 0.00 | 47 | 1017.1 |
| 20260831163520 | 94 | 215 | 2.0 | 7.0 | 0.00 | 0.00 | 0.00 | 47 | 1017.2 |
| 20260831163036 | 94 | 0 | 1.0 | 8.0 | 0.00 | 0.00 | 0.00 | 47 | 1017.3 |
| 20260831162521 | 93 | 183 | 2.0 | 9.0 | 0.00 | 0.00 | 0.00 | 47 | 1017.4 |
| 20260831162020 | 93 | 288 | 1.0 | 9.0 | 0.00 | 0.00 | 0.00 | 48 | 1017.5 |
| 20260831161535 | 93 | 167 | 1.0 | 7.0 | 0.00 | 0.00 | 0.00 | 49 | 1017.4 |
| 20260831161018 | 92 | 201 | 2.0 | 7.0 | 0.00 | 0.00 | 0.00 | 48 | 1017.6 |
| 20260831160518 | 92 | 223 | 1.0 | 8.0 | 0.00 | 0.00 | 0.00 | 48 | 1017.5 |
| 20260831160058 | 91 | 209 | 2.0 | 8.0 | 0.00 | 0.00 | 0.00 | 49 | 1017.5 |
| 20260831155520 | 91 | 0 | 3.0 | 9.0 | 0.00 | 0.00 | 0.00 | 49 | 1017.5 |
| 20260831155020 | 91 | 0 | 2.0 | 9.0 | 0.00 | 0.00 | 0.00 | 49 | 1017.5 |
| 20260831154604 | 91 | 208 | 0.0 | 5.0 | 0.00 | 0.00 | 0.00 | 51 | 1017.5 |
| 20260831154025 | 91 | 235 | 2.0 | 8.0 | 0.00 | 0.00 | 0.00 | 50 | 1017.6 |
| 20260831153517 | 90 | 0 | 3.0 | 10.0 | 0.00 | 0.00 | 0.00 | 52 | 1017.6 |